Location: São Paulo
(23.5507°S, 46.6334°W)
Time: 07:24:10
(UTC-03:00)

Vanguard 3 - Pass Details

Date: 19 February 2026
Orbit: 507 x 3205 km, 33.4° (Epoch: 7 March)

Event Time Altitude Azimuth Distance (km) Brightness Sun altitude
Exits shadow 02:03:50 34° 95° (E) 2,344 9.5 -47.0°
Drops below altitude 10° 02:10:35 10° 110° (ESE) 4,464 11.4 -46.0°
Sets 02:15:15 0° 114° (ESE) 5,917 12.2 -45.3°
